Hebron, NE

9:43 AM CDT on April 29, 2017 (GMT -0500)
Hebron Municipal

Weather History for KHJH - January, 2014

Change the Weather History Date:

Monday, January 20, 2014

  Actual Average Record
Temperature  
Mean Temperature 30 °F -  
Max Temperature 50 °F 35 °F 57 °F (1989)
Min Temperature 10 °F 15 °F -14 °F (1985)
Degree Days  
Heating Degree Days 35    
Moisture  
Dew Point 15 °F    
Average Humidity 52    
Maximum Humidity 73    
Minimum Humidity 26    
Precipitation  
Precipitation 0.00 in - - ()
Sea Level Pressure  
Sea Level Pressure 30.11 in    
Wind  
Wind Speed 8 mph (NNW)    
Max Wind Speed 33 mph    
Max Gust Speed 45 mph    
Visibility 10 miles    
Events      
Averages and records for this station are not official NWS values.
T = Trace of Precipitation, MM = Missing Value Source: NWS Daily Summary

Daily Weather History Graph

Daily Weather History Graph

Search for Another Location

Airport or City:

Trip Planner

Search our weather history database for the weather conditions in past years. The results will help you decide how hot, cold, wet, or windy it might be!

Date:

Astronomy

Jan. 20, 2014 Rise Set
Actual Time 7:48 AM CST 5:34 PM CST
Civil Twilight 7:18 AM CST 6:04 PM CST
Nautical Twilight 6:45 AM CST 6:37 PM CST
Astronomical Twilight 6:13 AM CST 7:09 PM CST
Moon 10:11 PM CST (1/20) 9:48 AM CST (1/20)
Length of Visible Light 10h 45m
Length of Day
9h 46m
Waning Gibbous, 82% of the Moon is Illuminated
Jan 20
Waning Gibbous
Jan 23
Last Quarter
Jan 30
New
Feb 6
First Quarter
Feb 14
Full

Hourly Weather History & Observations

Time (CST) Temp. Windchill Dew Point Humidity Pressure Visibility Wind Dir Wind Speed Gust Speed Precip Events Conditions
12:15 AM 29.3 °F - 17.4 °F 61% 29.87 in 10.0 mi Calm Calm - N/A   Clear
12:35 AM 30.4 °F - 17.4 °F 59% 29.87 in 10.0 mi Calm Calm - N/A   Clear
12:55 AM 30.9 °F - 17.6 °F 58% 29.87 in 10.0 mi Calm Calm - N/A   Clear
1:15 AM 30.4 °F - 17.6 °F 59% 29.87 in 10.0 mi Calm Calm - N/A   Clear
1:35 AM 29.8 °F - 18.3 °F 62% 29.86 in 10.0 mi Calm Calm - N/A   Clear
1:55 AM 26.6 °F - 18.7 °F 72% 29.86 in 10.0 mi Calm Calm - N/A   Clear
2:15 AM 28.9 °F - 17.2 °F 62% 29.87 in 10.0 mi Calm Calm - N/A   Clear
2:35 AM 27.9 °F - 17.6 °F 65% 29.87 in 10.0 mi Calm Calm - N/A   Clear
2:55 AM 28.6 °F - 17.2 °F 63% 29.88 in 10.0 mi Calm Calm - N/A   Clear
3:15 AM 28.4 °F - 16.7 °F 62% 29.89 in 10.0 mi Calm Calm - N/A   Clear
3:35 AM 27.9 °F - 16.7 °F 63% 29.90 in 10.0 mi Calm Calm - N/A   Clear
3:55 AM 27.1 °F - 16.5 °F 64% 29.91 in 10.0 mi Calm Calm - N/A   Clear
4:15 AM 24.1 °F - 16.2 °F 72% 29.92 in 10.0 mi Calm Calm - N/A   Clear
4:35 AM 26.2 °F - 16.3 °F 66% 29.92 in 10.0 mi Calm Calm - N/A   Clear
4:55 AM 26.6 °F - 15.8 °F 64% 29.93 in 10.0 mi Calm Calm - N/A   Clear
5:15 AM 26.6 °F - 16.2 °F 65% 29.94 in 10.0 mi Calm Calm - N/A   Clear
5:35 AM 25.7 °F - 16.3 °F 68% 29.94 in 10.0 mi Calm Calm - N/A   Clear
5:55 AM 25.7 °F - 16.2 °F 67% 29.95 in 10.0 mi Calm Calm - N/A   Clear
6:15 AM 24.6 °F - 16.2 °F 70% 29.96 in 10.0 mi Calm Calm - N/A   Clear
6:35 AM 23.7 °F - 16.2 °F 73% 29.97 in 10.0 mi Calm Calm - N/A   Clear
6:55 AM 26.1 °F 20.5 °F 16.7 °F 68% 29.98 in 10.0 mi NW 4.6 mph - N/A   Clear
7:15 AM 25.9 °F 19.2 °F 17.2 °F 70% 30.00 in 10.0 mi NNW 5.8 mph - N/A   Clear
7:35 AM 25.7 °F 19.0 °F 17.2 °F 70% 30.01 in 10.0 mi NW 5.8 mph - N/A   Clear
7:55 AM 26.2 °F 22.1 °F 17.6 °F 70% 30.01 in 10.0 mi NW 3.5 mph - N/A   Clear
8:15 AM 25.7 °F 21.5 °F 17.6 °F 71% 30.02 in 10.0 mi WNW 3.5 mph - N/A   Clear
8:35 AM 28.4 °F 24.6 °F 19.4 °F 69% 30.02 in 10.0 mi WNW 3.5 mph - N/A   Clear
8:55 AM 29.8 °F 23.9 °F 20.3 °F 68% 30.04 in 10.0 mi NW 5.8 mph - N/A   Clear
9:15 AM 32.2 °F 24.4 °F 21.9 °F 66% 30.05 in 10.0 mi NW 9.2 mph - N/A   Clear
9:35 AM 34.2 °F 28.2 °F 22.5 °F 62% 30.06 in 10.0 mi NW 6.9 mph - N/A   Clear
9:55 AM 37.2 °F 31.9 °F 23.7 °F 58% 30.08 in 10.0 mi NNW 6.9 mph - N/A   Clear
10:15 AM 41.5 °F 35.4 °F 23.9 °F 50% 30.10 in 10.0 mi NNW 10.4 mph - N/A   Clear
10:35 AM 44.1 °F 38.6 °F 24.3 °F 46% 30.10 in 10.0 mi NNW 10.4 mph 18.4 mph N/A   Clear
10:55 AM 45.3 °F 37.6 °F 22.5 °F 40% 30.11 in 10.0 mi NNW 19.6 mph 25.3 mph N/A   Clear
11:15 AM 46.6 °F - 22.5 °F 39% 30.11 in 10.0 mi NNW 13.8 mph 21.9 mph N/A   Clear
11:35 AM 48.6 °F - 17.6 °F 29% 30.10 in 10.0 mi North 23.0 mph 33.4 mph N/A   Clear
11:55 AM 47.3 °F - 18.3 °F 32% 30.10 in 10.0 mi NNW 23.0 mph 40.3 mph N/A   Clear
12:15 PM 49.5 °F - 19.2 °F 30% 30.08 in 10.0 mi North 24.2 mph 34.5 mph N/A   Clear
12:35 PM 48.7 °F - 18.9 °F 31% 30.08 in 10.0 mi NNW 23.0 mph 29.9 mph N/A   Clear
12:55 PM 48.7 °F - 18.5 °F 30% 30.08 in 10.0 mi North 24.2 mph 31.1 mph N/A   Clear
1:15 PM 49.5 °F - 18.9 °F 30% 30.08 in 10.0 mi NW 21.9 mph 34.5 mph N/A   Clear
1:35 PM 50.0 °F - 17.6 °F 28% 30.07 in 10.0 mi NNW 25.3 mph 36.8 mph N/A   Clear
1:55 PM 50.0 °F - 17.6 °F 28% 30.08 in 10.0 mi NNW 26.5 mph 39.1 mph N/A   Clear
2:15 PM 50.5 °F - 17.4 °F 27% 30.08 in 10.0 mi NNW 23.0 mph 34.5 mph N/A   Scattered Clouds
2:35 PM 49.1 °F - 17.1 °F 28% 30.09 in 10.0 mi NNW 24.2 mph 33.4 mph N/A   Mostly Cloudy
2:55 PM 47.7 °F - 16.7 °F 29% 30.10 in 10.0 mi NNW 29.9 mph 39.1 mph N/A   Mostly Cloudy
3:15 PM 46.8 °F - 16.0 °F 29% 30.12 in 10.0 mi NNW 27.6 mph 40.3 mph N/A   Mostly Cloudy
3:35 PM 47.8 °F - 15.6 °F 28% 30.12 in 10.0 mi NNW 24.2 mph 38.0 mph N/A   Scattered Clouds
3:55 PM 48.2 °F - 14.9 °F 26% 30.12 in 10.0 mi NNW 24.2 mph 35.7 mph N/A   Scattered Clouds
4:15 PM 46.8 °F - 15.4 °F 29% 30.13 in 10.0 mi NNW 23.0 mph 34.5 mph N/A   Mostly Cloudy
4:35 PM 44.6 °F 34.9 °F 21.0 °F 39% 30.15 in 10.0 mi NNW 28.8 mph 40.3 mph N/A   Scattered Clouds
4:55 PM 43.2 °F 32.6 °F 21.0 °F 41% 30.18 in 10.0 mi NNW 31.1 mph 44.9 mph N/A   Scattered Clouds
5:15 PM 39.9 °F 27.8 °F 14.9 °F 36% 30.21 in 10.0 mi NNW 33.4 mph 43.7 mph N/A   Scattered Clouds
5:35 PM 36.9 °F 25.9 °F 11.1 °F 35% 30.23 in 10.0 mi NNW 21.9 mph 33.4 mph N/A   Clear
5:55 PM 36.0 °F 25.6 °F 7.7 °F 31% 30.24 in 10.0 mi NNW 18.4 mph 36.8 mph N/A   Clear
6:15 PM 34.2 °F 23.0 °F 8.2 °F 34% 30.25 in 10.0 mi NNW 19.6 mph 31.1 mph N/A   Clear
6:35 PM 32.5 °F 20.5 °F 9.5 °F 38% 30.26 in 10.0 mi NNW 20.7 mph 33.4 mph N/A   Clear
6:55 PM 31.3 °F 18.9 °F 10.8 °F 42% 30.28 in 10.0 mi North 20.7 mph 26.5 mph N/A   Clear
7:15 PM 28.4 °F 14.4 °F 11.7 °F 50% 30.30 in 10.0 mi North 23.0 mph 29.9 mph N/A   Clear
7:35 PM 26.2 °F 10.6 °F 9.9 °F 50% 30.31 in 10.0 mi North 26.5 mph 36.8 mph N/A   Clear
7:55 PM 23.9 °F 8.8 °F 8.6 °F 52% 30.34 in 10.0 mi NNW 21.9 mph 32.2 mph N/A   Clear
8:15 PM 21.2 °F 3.5 °F 9.0 °F 59% 30.36 in 10.0 mi North 27.6 mph 32.2 mph N/A   Clear
8:35 PM 19.2 °F 2.6 °F 6.3 °F 57% 30.38 in 10.0 mi North 21.9 mph 33.4 mph N/A   Clear
8:55 PM 16.9 °F 1.7 °F 3.7 °F 56% 30.39 in 10.0 mi North 16.1 mph 24.2 mph N/A   Clear
9:15 PM 15.8 °F 0.3 °F 3.0 °F 57% 30.40 in 10.0 mi North 16.1 mph 24.2 mph N/A   Clear
9:35 PM 15.4 °F 0.4 °F 2.7 °F 57% 30.41 in 10.0 mi North 15.0 mph 28.8 mph N/A   Clear
9:55 PM 14.5 °F -2.3 °F 1.4 °F 56% 30.42 in 10.0 mi North 18.4 mph 31.1 mph N/A   Clear
10:15 PM 13.8 °F -2.7 °F 1.4 °F 58% 30.43 in 10.0 mi North 17.3 mph 28.8 mph N/A   Clear
10:35 PM 12.9 °F -4.9 °F 0.1 °F 57% 30.45 in 10.0 mi North 19.6 mph 29.9 mph N/A   Clear
10:55 PM 12.2 °F -7.9 °F 0.1 °F 59% 30.45 in 10.0 mi North 25.3 mph 31.1 mph N/A   Clear
11:15 PM 11.3 °F -6.0 °F 0.1 °F 61% 30.46 in 10.0 mi North 17.3 mph 26.5 mph N/A   Clear
11:35 PM 10.9 °F -6.5 °F -0.4 °F 60% 30.48 in 10.0 mi North 17.3 mph 23.0 mph N/A   Clear
11:55 PM 10.4 °F -7.2 °F -0.8 °F 61% 30.48 in 10.0 mi North 17.3 mph 25.3 mph N/A   Clear